Tracking 19717 objects as of 25-Jun-2019
HD Live streaming from Space Station
objects crossing your sky now

DELTA 1 DEB (YO)

Track DELTA 1 DEB (YO) now!
10-day predictions


NORAD ID: 167
Int'l Code: 1961-017D
Perigee: 757.5 km
Apogee: 889.1 km
Inclination: 47.8 °
Period: 101.2 minutes
Semi major axis: 7194 km
RCS: 0.047 m2 (small)
Launch date: July 12, 1961
Source: United States (US)
Launch site: AIR FORCE EASTERN TEST RANGE (AFETR)

Note: This is SATELLITE DEBRIS
aabbcc
Your satellite tracking list
Your tracking list is empty




NASA's NSSDC Master Catalog

Two Line Element Set (TLE):
1   167U 61017D   19175.70325064 -.00000106 +00000-0 +20375-4 0  9998
2   167 047.8463 086.2902 0091474 119.2507 241.7559 14.22721321001543
Source of the keplerian elements: AFSPC